Weather History for Homer, AK

Change the Weather History Date:

Tuesday, March 20, 2012

  Actual Average Record
Temperature  
Mean Temperature 22 °F -  
Max Temperature 24 °F 38 °F 49 °F (1941)
Min Temperature 19 °F 24 °F -3 °F (1959)
Degree Days  
Heating Degree Days 44    
Moisture  
Dew Point 18 °F    
Average Humidity 90    
Maximum Humidity 100    
Minimum Humidity 78    
Precipitation  
Precipitation 0.05 in - - ()
Sea Level Pressure  
Sea Level Pressure 29.54 in    
Wind  
Wind Speed 10 mph (WSW)    
Max Wind Speed 16 mph    
Max Gust Speed 22 mph    
Visibility 4 miles    
Events Snow    
Averages and records for this station are not official NWS values.
T = Trace of Precipitation, MM = Missing Value Source: NWS Daily Summary

Daily Weather History Graph

Daily Weather History Graph

Search for Another Location

Airport:

Trip Planner

Search our weather history database for the weather conditions in past years. The results will help you decide how hot, cold, wet, or windy it might be!

Date:

Astronomy

Mar. 20, 2012 Rise Set
Actual Time 8:05 AM AKDT 8:22 PM AKDT
Civil Twilight 7:24 AM AKDT 9:03 PM AKDT
Nautical Twilight 6:34 AM AKDT 9:53 PM AKDT
Astronomical Twilight 5:41 AM AKDT 10:47 PM AKDT
Moon 7:09 AM AKDT (3/20) 6:50 PM AKDT (3/20)
Length of Visible Light 13h 39m
Length of Day
12h 16m
Waning Crescent, 3% of the Moon is Illuminated
Mar 20
Waning Crescent
Mar 22
New
Mar 30
First Quarter
Apr 6
Full
Apr 13
Last Quarter

Hourly Weather History & Observations

Time (AKDT) Temp. Windchill Dew Point Humidity Pressure Visibility Wind Dir Wind Speed Gust Speed Precip Events Conditions
12:53 AM 24.1 °F 17.0 °F 19.0 °F 81% 29.63 in 10.0 mi West 5.8 mph - N/A   Overcast
1:12 AM 23.0 °F 9.6 °F 21.2 °F 93% 29.62 in 8.0 mi SW 16.1 mph - N/A   Overcast
1:53 AM 23.0 °F 11.1 °F 19.9 °F 88% 29.63 in 6.0 mi WSW 12.7 mph - 0.00 in Snow Light Snow
2:53 AM 21.9 °F 11.7 °F 19.9 °F 92% 29.62 in 3.0 mi WSW 9.2 mph - 0.00 in Snow Light Snow
2:57 AM 21.2 °F 11.7 °F 19.4 °F 93% 29.62 in 2.5 mi WSW 8.1 mph - 0.00 in Snow Light Snow
3:19 AM 21.2 °F 10.1 °F 19.4 °F 93% 29.61 in 3.0 mi West 10.4 mph - 0.01 in Snow Light Snow
3:24 AM 21.2 °F 10.1 °F 19.4 °F 93% 29.61 in 4.0 mi WSW 10.4 mph - 0.01 in Snow Light Snow
3:44 AM 21.2 °F 9.5 °F 19.4 °F 93% 29.61 in 2.5 mi WSW 11.5 mph - 0.01 in Snow Light Snow
3:53 AM 21.0 °F 9.9 °F 19.0 °F 92% 29.61 in 3.0 mi West 10.4 mph - 0.01 in Snow Light Snow
4:32 AM 21.2 °F 10.9 °F 17.6 °F 86% 29.60 in 5.0 mi WSW 9.2 mph - 0.00 in Snow Light Snow
4:53 AM 21.0 °F 9.9 °F 18.0 °F 88% 29.60 in 7.0 mi WSW 10.4 mph - 0.00 in Snow Light Snow
5:53 AM 21.0 °F 8.6 °F 18.0 °F 88% 29.59 in 3.0 mi WSW 12.7 mph - 0.00 in Snow Light Snow
6:53 AM 21.0 °F 9.9 °F 18.0 °F 88% 29.57 in 6.0 mi WSW 10.4 mph - 0.00 in Snow Light Snow
7:02 AM 21.2 °F 8.9 °F 17.6 °F 86% 29.57 in 5.0 mi West 12.7 mph - 0.00 in Snow Light Snow
7:53 AM 19.9 °F 8.6 °F 17.1 °F 89% 29.57 in 5.0 mi WSW 10.4 mph - 0.00 in Snow Light Snow
8:33 AM 19.4 °F 7.9 °F 17.6 °F 93% 29.56 in 2.5 mi WSW 10.4 mph - 0.00 in Snow Light Snow
8:40 AM 19.4 °F 7.9 °F 17.6 °F 93% 29.56 in 4.0 mi WSW 10.4 mph - 0.00 in Snow Light Snow
8:53 AM 19.9 °F 7.3 °F 17.1 °F 89% 29.56 in 4.0 mi WSW 12.7 mph - 0.00 in Snow Light Snow
9:00 AM 19.4 °F 7.2 °F 17.6 °F 93% 29.55 in 2.5 mi WSW 11.5 mph 19.6 mph 0.00 in Snow Light Snow
9:09 AM 19.4 °F 6.6 °F 17.6 °F 93% 29.55 in 3.0 mi WSW 12.7 mph - 0.00 in Snow Light Snow
9:53 AM 19.0 °F 6.1 °F 17.1 °F 92% 29.55 in 3.0 mi WSW 12.7 mph - 0.00 in Snow Light Snow
10:53 AM 19.0 °F 7.5 °F 17.1 °F 92% 29.55 in 3.0 mi WSW 10.4 mph - 0.01 in Snow Light Snow
11:53 AM 19.0 °F 8.2 °F 17.1 °F 92% 29.54 in 3.0 mi WSW 9.2 mph - 0.00 in Snow Light Snow
12:53 PM 19.9 °F 9.3 °F 17.1 °F 89% 29.53 in 3.0 mi WSW 9.2 mph - 0.01 in Snow Light Snow
1:53 PM 19.9 °F 5.7 °F 18.0 °F 92% 29.52 in 3.0 mi WSW 16.1 mph - 0.01 in Snow Light Snow
2:53 PM 19.9 °F 7.3 °F 18.0 °F 92% 29.51 in 3.0 mi WSW 12.7 mph 19.6 mph 0.00 in Snow Light Snow
3:53 PM 19.9 °F 7.3 °F 19.0 °F 96% 29.49 in 3.0 mi WSW 12.7 mph - 0.00 in Snow Light Snow
4:53 PM 19.9 °F 6.7 °F 18.0 °F 92% 29.49 in 3.0 mi WSW 13.8 mph 21.9 mph 0.01 in Snow Light Snow
5:00 PM 19.4 °F 6.0 °F 17.6 °F 93% 29.48 in 1.5 mi WSW 13.8 mph 20.7 mph 0.00 in Snow Light Snow
5:53 PM 21.0 °F 9.3 °F 19.0 °F 92% 29.48 in 2.0 mi WSW 11.5 mph - 0.00 in Snow Light Snow
6:12 PM 19.4 °F 6.6 °F 19.4 °F 100% 29.47 in 2.5 mi WSW 12.7 mph - 0.00 in Snow Light Snow
6:22 PM 19.4 °F 6.6 °F 19.4 °F 100% 29.47 in 2.5 mi West 12.7 mph - 0.00 in Snow Light Snow
6:41 PM 19.4 °F 7.2 °F 17.6 °F 93% 29.47 in 3.0 mi West 11.5 mph - 0.00 in Snow Light Snow
6:53 PM 21.0 °F 11.4 °F 18.0 °F 88% 29.47 in 4.0 mi WSW 8.1 mph - 0.00 in Snow Light Snow
7:08 PM 21.2 °F 10.1 °F 19.4 °F 93% 29.47 in 5.0 mi WSW 10.4 mph - 0.00 in Snow Light Snow
7:53 PM 21.0 °F 11.4 °F 18.0 °F 88% 29.47 in 4.0 mi SW 8.1 mph - 0.00 in Snow Light Snow
8:10 PM 21.2 °F 11.7 °F 17.6 °F 86% 29.47 in 5.0 mi SSW 8.1 mph - 0.00 in Snow Light Snow
8:53 PM 21.0 °F 14.6 °F 17.1 °F 85% 29.48 in 9.0 mi Variable 4.6 mph - 0.00 in   Overcast
9:53 PM 21.0 °F 10.6 °F 16.0 °F 81% 29.49 in 10.0 mi NNW 9.2 mph - N/A   Overcast
10:53 PM 21.0 °F 9.9 °F 15.1 °F 78% 29.49 in 10.0 mi NNW 10.4 mph - N/A   Overcast
11:53 PM 21.0 °F 16.2 °F 16.0 °F 81% 29.51 in 10.0 mi NE 3.5 mph - N/A   Overcast